Location: Dortmund
(51.5019°N, 7.6520°E)
Time: 21:24:08
(UTC+02:00)

ISS - Pass Details

Date: 08 January 2018
Orbit: 401 x 409 km, 51.6° (Epoch: 22 August)

Event Time Altitude Azimuth Distance (km) Brightness Sun altitude
Exits shadow 06:39:48 44° 269° (W) 601 -3.5 -16.7°
Maximum altitude 06:40:45 76° 195° (SSW) 442 -3.8 -16.5°
Drops below altitude 10° 06:44:09 10° 108° (ESE) 1,515 0.4 -16.0°
Sets 06:46:16 0° 107° (ESE) 2,382 2.0 -15.7°
